Wind_Speed
7 3 7 14 11 3 11 10 6 6 5 3 9 5 13 11 3 4 2 3 1 9 16 15 16 30 29 26 19 20 28 20 18 11 9 7 11 5 8 19 12 14 9 9
3 8 14 14 7 13 14 12 5 4 6 6 6 7 10 7 4 6 6 5 0 4 5 3 17 29 30 27 23 22 24 20 17 14 10 10 5 12 11 12 12 10 9 6
9 10 16 14 2 10 15 10 7 7 4 9 8 3 7 7 12 16 14 8 9 7 4 3 1 12 27 30 27 24 24 20 18 11 10 6 12 16 13 12 10 7 10 7
7 6 2 7 7 7 6 20 18 14 10 5 18 3 10 12 11 12 11 13 13 11 7 7 3 20 25 28 28 28 27 23 21 13 10 13 10 10 12 14 12 10 8 7
7 1 5 4 8 8 5 8 4 8 10 5 18 4 4 10 12 17 19 15 14 12 10 8 8 7 12 30 30 30 26 23 24 17 13 14 13 10 3 15 15 14 10 8
8 4 2 6 9 7 7 6 3 2 1 2 5 6 4 9 19 13 15 15 15 12 13 11 11 7 10 22 26 30 27 23 23 19 16 15 11 6 3 16 19 16 13 14
9 11 4 4 6 5 4 5 4 5 5 2 8 8 7 18 11 15 15 17 13 13 12 10 6 9 20 24 28 30 29 25 23 19 19 18 13 8 9 14 14 15 14 16
5 2 8 6 5 5 5 7 5 4 2 2 6 4 3 10 13 10 13 16 14 13 12 15 17 22 12 20 28 26 32 29 25 22 19 17 16 13 11 19 13 11 8 17
5 8 7 10 5 7 7 3 1 5 2 1 2 7 2 19 20 7 9 13 17 16 17 18 21 24 21 20 23 28 32 31 30 27 23 20 19 17 20 13 12 8 3 5
6 5 7 2 5 5 4 1 5 4 3 1 8 4 4 9 14 17 14 10 16 16 18 15 16 25 30 34 30 18 33 35 33 29 27 25 20 18 17 11 9 10 10 13
4 2 9 6 4 7 2 2 3 6 3 4 3 5 7 7 8 13 16 10 13 14 13 14 19 33 38 32 32 24 35 35 31 32 27 26 24 22 21 17 14 10 11 7
7 3 5 8 7 8 7 0 1 4 5 3 3 5 9 9 11 4 12 14 8 7 14 7 18 28 28 32 39 31 32 33 33 33 31 28 26 25 23 19 18 13 14 13
5 4 4 9 7 7 3 6 5 7 4 6 5 4 4 5 9 2 14 13 4 3 6 6 3 21 26 29 28 32 34 35 36 34 32 30 29 27 23 23 22 17 15 13
4 2 4 4 7 5 5 8 8 2 2 5 5 3 3 5 6 5 8 13 13 3 6 4 3 11 19 24 26 35 33 32 35 35 31 34 32 29 25 23 20 20 17 17
3 2 5 7 9 10 9 10 11 8 6 6 4 7 2 5 5 2 6 15 25 4 3 3 3 6 10 12 12 34 38 33 31 34 32 33 33 29 27 23 20 19 18 18
4 3 4 5 8 9 10 9 9 10 8 6 7 6 2 4 8 14 12 25 23 6 4 4 2 4 9 13 27 13 18 31 24 33 34 33 32 31 26 24 18 17 17 17
3 3 3 4 9 11 7 9 8 6 10 7 3 6 9 5 5 11 21 22 7 6 7 6 4 9 6 13 15 10 7 5 13 31 32 32 33 30 26 23 22 20 19 17
1 1 2 2 6 6 6 9 15 11 13 10 8 6 5 6 7 7 6 3 2 4 6 9 12 13 17 21 20 20 17 17 33 33 33 27 27 29 25 22 20 18 16 17
3 4 1 2 3 8 8 6 4 6 7 15 12 7 2 2 2 2 6 4 6 6 5 10 17 17 13 21 21 28 34 46 38 34 34 28 27 26 23 20 16 14 13 11
4 6 5 1 2 4 3 7 6 6 3 9 11 8 9 4 2 4 3 3 3 11 2 9 19 12 5 4 10 15 12 12 4 18 34 30 24 19 16 13 8 8 9 7
2 2 4 5 5 3 4 5 2 1 3 3 7 6 6 4 4 4 2 5 7 7 6 9 12 8 4 6 8 10 23 11 2 22 23 21 18 16 15 16 14 12 11 10
4 5 4 3 5 2 3 5 4 6 3 2 7 6 6 5 3 6 6 5 5 6 9 7 5 11 6 6 9 10 9 12 10 9 21 18 18 15 15 14 14 14 12 10
2 4 4 5 4 5 4 5 4 7 4 2 8 5 7 7 6 3 4 5 4 1 6 4 5 14 9 6 10 13 21 17 16 18 17 12 16 14 15 15 14 16 15 15
4 2 2 6 2 2 2 5 7 7 5 7 8 7 4 5 3 5 6 4 2 3 4 7 10 12 16 15 11 12 15 19 23 25 25 19 17 15 19 20 16 21 19 19
4 8 3 5 6 4 5 4 6 10 15 16 12 8 8 12 9 2 3 3 1 4 6 9 10 11 14 23 21 21 22 25 29 26 25 25 23 20 20 19 16 15 16 14
5 8 3 2 3 4 0 7 10 16 14 12 10 5 6 13 10 11 2 5 4 4 7 9 10 14 17 23 17 13 17 21 25 22 18 19 20 18 17 19 18 14 13 11
Wind_Direction
219 178 237 243 246 144 91 112 135 32 142 122 201 174 216 224 190 218 246 102 157 263 220 171 146 146 146 152 149 145 148 150 151 165 157 167 140 165 131 135 135 126 132 143
246 224 244 257 200 122 122 119 114 8 309 186 149 204 232 229 252 269 226 154 99 344 335 237 152 152 153 158 152 148 153 155 152 164 175 169 137 170 134 141 143 133 132 124
209 244 233 249 204 149 147 145 202 167 214 236 171 197 215 239 215 214 224 179 155 213 226 36 250 139 150 159 164 157 165 162 163 164 189 154 142 144 153 155 147 140 139 128
254 299 86 10 334 349 140 180 184 166 165 206 190 240 217 216 228 240 233 188 178 188 205 118 120 220 163 173 170 169 170 172 176 164 172 167 165 163 190 169 163 152 143 143
252 167 136 287 277 254 256 198 187 188 189 169 202 268 244 192 223 219 229 215 181 179 198 145 189 182 231 176 179 177 181 180 186 179 179 173 180 187 337 193 192 163 167 140
269 294 351 245 248 271 318 355 313 345 212 345 354 68 258 180 223 222 213 211 172 177 195 155 222 209 246 192 179 184 184 183 187 186 188 180 174 180 151 170 158 167 188 174
248 238 186 278 332 353 354 9 333 347 37 245 357 27 280 228 221 207 188 196 191 173 181 169 196 235 234 204 179 184 187 183 181 187 191 189 184 194 198 180 183 185 201 198
261 252 152 187 208 252 257 183 173 208 161 261 22 205 336 298 226 203 187 178 178 177 186 185 186 219 208 205 187 182 187 187 186 183 191 188 191 191 184 184 212 186 203 217
352 15 169 161 174 164 278 338 167 115 1 82 156 317 92 23 17 22 117 161 189 192 193 194 198 198 195 207 178 185 186 191 189 186 189 191 194 201 178 195 218 192 109 187
311 343 295 172 103 285 258 236 29 12 114 335 1 303 283 8 359 340 321 185 190 206 200 201 172 169 182 194 198 199 194 192 195 189 191 193 195 200 196 206 216 151 149 168
335 351 298 340 172 225 296 139 89 99 96 160 161 215 153 125 50 283 281 275 203 213 227 192 177 174 179 189 197 190 199 191 197 190 192 193 197 206 212 211 216 185 167 182
7 284 304 286 320 8 117 264 10 138 213 238 190 271 172 189 137 207 285 299 253 233 224 220 173 179 180 176 191 193 194 187 194 197 201 205 202 205 214 213 212 210 198 187
351 340 348 333 345 22 19 334 315 113 121 179 143 272 190 289 77 30 263 275 345 342 32 86 62 181 175 183 182 183 190 189 194 191 198 208 209 206 209 211 212 216 225 222
99 265 215 236 271 321 320 309 302 249 162 161 206 214 174 87 87 22 12 356 312 36 22 17 101 177 192 203 186 175 186 186 190 191 192 196 205 206 211 217 220 221 223 224
131 243 289 327 338 328 317 315 310 308 236 152 212 178 135 123 112 148 76 335 302 307 173 239 322 94 114 161 163 166 176 184 194 191 194 197 202 205 208 211 214 223 228 230
184 255 291 295 295 312 319 308 279 261 290 220 180 95 70 118 106 89 45 310 285 293 128 204 252 346 87 149 186 182 172 195 193 197 197 198 201 204 206 210 212 213 222 228
155 84 46 331 328 327 326 281 328 17 34 28 110 147 152 154 163 154 176 209 231 329 335 33 216 211 156 157 203 200 231 286 260 207 201 200 200 198 203 207 212 218 221 226
142 66 101 265 318 294 245 22 47 42 15 21 100 102 140 175 179 205 245 149 308 85 330 344 336 312 221 186 184 173 175 251 269 220 200 196 198 197 199 202 205 210 215 221
202 146 134 133 253 274 311 28 42 72 32 79 126 119 38 79 123 250 211 188 115 96 333 318 303 316 303 215 212 187 188 192 215 225 185 187 195 197 195 203 206 206 208 215
192 130 127 258 278 270 83 56 10 354 70 101 127 154 156 195 293 256 350 48 58 108 15 318 312 320 309 91 181 198 198 206 314 233 187 182 186 191 176 164 143 178 210 197
152 228 190 225 221 235 0 13 339 277 243 1 124 161 170 173 201 212 69 55 30 21 44 329 318 344 103 190 168 135 95 97 97 11 168 146 144 151 152 143 131 117 123 128
174 154 215 233 233 197 358 8 100 206 225 323 127 156 149 166 160 136 126 87 50 11 3 356 337 50 60 164 169 166 139 116 104 79 44 83 114 121 114 115 125 128 131 126
5 182 203 144 212 204 224 229 126 157 186 250 141 183 153 165 210 118 83 104 101 103 334 360 41 88 86 135 157 134 131 130 103 103 138 104 100 107 115 120 121 120 118 123
348 323 56 21 104 199 302 62 40 25 42 28 128 126 143 172 144 146 119 120 165 158 60 95 61 72 63 77 127 152 154 145 133 126 124 130 119 111 109 113 121 109 114 113
169 315 216 255 305 292 81 89 68 52 57 99 94 90 90 71 42 37 80 93 72 82 92 110 99 87 74 80 94 116 126 134 123 123 126 129 130 128 118 112 114 116 112 103
178 201 158 213 286 149 168 93 76 76 91 103 116 71 54 99 87 60 96 135 128 116 106 104 115 123 107 107 103 111 126 130 136 135 138 136 131 129 127 121 115 112 109 112
Height
757 779 788 770 758 753 768 789 800 795 790 800 807 812 803 791 797 799 803 807 803 804 800 799 802 806 811 817 819 823 828 832 835 838 841 842 843 845 849 853 856 859 862 863
769 785 755 743 745 753 775 791 801 796 796 792 805 810 802 799 801 798 796 803 803 802 799 803 801 806 808 814 818 822 827 831 834 837 840 841 844 845 849 851 857 859 862 861
775 757 738 741 745 758 770 793 800 802 794 797 807 816 807 797 795 790 794 796 799 804 803 804 804 808 809 813 817 820 826 831 834 837 839 842 844 846 848 850 854 856 860 860
755 731 740 748 753 750 777 762 773 781 807 819 789 829 809 798 799 798 794 793 793 795 794 799 809 812 809 813 817 819 823 829 835 838 840 843 843 844 844 848 852 855 857 859
761 747 749 758 755 744 762 742 750 760 779 781 797 809 794 792 801 791 785 783 784 784 785 793 803 808 813 810 814 818 823 828 833 838 840 842 843 846 846 850 854 856 858 858
749 729 737 746 738 737 735 749 753 757 778 817 801 812 807 797 781 777 777 779 782 784 786 790 798 805 811 814 814 818 822 826 830 835 838 840 842 845 847 850 853 855 856 857
754 750 736 733 753 739 747 775 820 822 825 832 804 811 795 770 759 761 769 771 774 778 783 787 790 798 806 810 810 815 819 823 827 830 835 837 840 843 845 846 849 852 855 857
775 778 750 736 751 764 763 777 817 825 833 823 807 826 792 757 750 751 757 764 768 773 778 783 783 792 801 807 809 813 816 819 823 826 830 834 837 840 842 845 847 851 854 856
781 772 734 734 732 746 764 782 755 803 799 815 810 803 772 771 779 769 763 765 767 769 772 778 783 790 797 802 806 809 813 816 818 823 827 831 834 836 839 842 846 849 851 851
761 788 745 732 730 735 749 748 794 799 830 835 832 817 818 804 800 786 787 770 766 767 769 773 777 783 789 795 799 805 810 811 814 820 824 828 832 835 837 840 843 847 851 853
752 770 771 744 753 763 760 771 773 803 819 837 837 822 794 800 797 800 787 774 766 765 766 766 771 777 779 787 792 797 803 808 813 815 820 824 828 831 835 838 841 845 848 851
764 772 793 774 740 733 742 752 761 806 830 820 815 814 774 781 778 783 782 776 767 762 759 764 765 771 778 782 785 791 800 803 807 811 814 819 823 827 830 834 838 841 845 849
766 789 809 791 768 749 757 753 757 771 789 811 825 809 775 777 781 782 783 778 769 763 762 764 766 766 769 776 779 784 794 795 800 805 809 815 818 822 825 829 834 838 841 844
759 780 797 817 793 770 770 758 752 759 798 805 803 783 776 781 788 786 788 787 780 767 772 771 767 763 767 772 774 777 788 792 797 799 803 809 814 818 821 825 830 834 837 840
767 791 781 775 768 764 765 764 760 769 766 789 777 783 778 784 784 783 771 790 796 772 774 774 772 762 765 766 773 774 779 786 793 795 798 801 809 814 818 822 825 829 832 835
761 790 774 783 768 767 771 760 757 757 755 754 761 786 783 783 782 789 795 810 794 780 776 774 773 771 763 766 773 780 781 785 790 792 793 796 802 809 814 819 822 824 828 831
766 781 793 801 781 778 791 768 759 752 752 757 775 774 782 785 787 790 792 794 781 778 778 778 776 773 768 769 773 780 781 784 792 794 794 794 798 804 809 813 817 821 824 827
767 775 785 804 796 821 774 750 748 758 755 753 765 770 773 775 781 784 772 765 775 773 775 776 776 773 771 770 771 776 780 786 794 792 791 794 798 802 805 808 812 817 821 823
756 776 794 808 811 788 767 761 762 768 775 764 774 774 773 772 777 775 772 772 765 767 771 777 773 768 763 761 763 769 777 781 781 780 780 787 794 798 801 807 810 813 817 821
755 764 789 795 809 812 777 759 750 751 791 774 772 775 776 773 783 775 763 762 763 761 766 772 772 765 760 757 757 763 770 781 785 784 775 782 789 797 799 803 807 809 812 816
775 779 792 796 801 781 761 752 748 786 795 767 769 772 772 778 779 767 761 764 767 769 763 769 770 766 764 762 761 762 773 776 756 777 773 776 784 794 797 801 805 810 814 816
780 791 792 786 790 794 753 755 775 773 760 758 765 767 769 767 760 763 762 766 767 770 769 769 772 768 767 764 761 761 763 772 783 779 759 773 787 793 797 803 807 810 813 817
782 770 781 777 779 756 749 753 750 752 755 753 763 763 766 766 764 765 766 768 772 773 774 771 772 770 768 769 767 768 771 768 773 774 789 792 793 798 801 805 810 812 813 817
754 752 768 769 753 749 747 747 748 747 750 750 758 762 765 767 768 769 772 777 779 777 774 774 774 773 772 774 774 778 780 781 783 792 792 797 798 806 805 806 814 809 816 820
775 770 761 763 753 747 745 745 747 750 753 759 765 770 770 772 775 775 779 778 778 777 777 778 777 777 776 776 779 783 785 784 787 795 798 801 804 806 808 811 815 819 818 820
758 765 769 767 751 752 747 744 745 753 762 766 770 774 774 772 776 775 783 784 781 783 782 782 784 783 783 780 787 791 789 788 791 795 799 803 805 808 812 813 816 819 821 824